FW4141 Weather Reports


time (UTC)temp
C
wind
direction
speed
KPH
gust
KPH
rain 1hr
cm
rain 24hr
cm
rain mn
cm
humidity
%
barometer
mb
20260507113041 10 0.0 0.0 0.00 0.18 0.18 82 1006.3
20260507112037 10 0.0 0.0 0.00 0.18 0.18 82 1006.2
20260507111054 10 0.0 0.0 0.00 0.18 0.18 83 1006.1
20260507110030 10 0.0 0.0 0.00 0.18 0.18 83 1006.0
20260507105027 10 0.0 0.0 0.00 0.18 0.18 84 1005.9
20260507104106 10 0.0 0.0 0.00 0.18 0.18 85 1005.9
20260507103021 10 0.0 0.0 0.00 0.18 0.18 87 1005.8
20260507102016 10 0.0 0.0 0.00 0.18 0.18 88 1005.7
20260507101113 10 0.0 0.0 0.03 0.18 0.18 89 1005.6
20260507100110 10 0.0 0.0 0.03 0.18 0.18 88 1005.6
20260507095107 9 0.0 0.0 0.03 0.18 0.18 88 1005.6
20260507094103 9 0.0 0.0 0.03 0.18 0.18 88 1005.5
20260507093102 9 0.0 0.0 0.03 0.18 0.18 87 1005.5
20260507092055 9 0.0 0.0 0.03 0.18 0.18 87 1005.3
20260507091114 9 0.0 0.0 0.00 0.15 0.15 87 1005.2
20260507090051 9 0.0 0.0 0.03 0.15 0.15 87 1005.1
20260507085042 9 0.0 0.0 0.03 0.15 0.15 87 1004.8
20260507084041 8 0.0 0.0 0.05 0.15 0.15 87 1004.8
20260507083037 9 0.0 0.0 0.10 0.15 0.15 87 1004.7
20260507082034 8 0.0 0.0 0.10 0.15 0.15 86 1004.5
20260507081029 8 0.0 0.0 0.10 0.15 0.15 86 1004.4
20260507080025 8 0.0 0.0 0.05 0.13 0.13 85 1004.2
20260507075024 8 0.0 0.0 0.05 0.13 0.13 85 1004.2
20260507074018 8 0.0 0.0 0.03 0.10 0.10 85 1003.9
20260507073114 8 0.0 0.0 0.00 0.05 0.05 86 1003.9
20260507072113 8 0.0 0.0 0.00 0.05 0.05 87 1003.8
20260507071107 8 0.0 0.0 0.00 0.05 0.05 87 1003.7
20260507070145 8 0.0 0.0 0.00 0.05 0.05 88 1003.6
20260507065101 8 0.0 0.0 0.00 0.05 0.05 88 1003.7
20260507064116 8 0.0 0.0 0.00 0.05 0.05 87 1003.7
20260507063114 8 0.0 0.0 0.00 0.05 0.05 87 1003.6
20260507062110 8 0.0 0.0 0.00 0.05 0.05 87 1003.5
20260507061048 8 0.0 0.0 0.03 0.05 0.05 87 1003.3
20260507060043 8 0.0 0.0 0.05 0.05 0.05 87 1003.2
20260507055039 8 0.0 0.0 0.05 0.05 0.05 87 1003.1
20260507054056 8 0.0 0.0 0.05 0.05 0.05 87 1003.1
20260507053033 8 0.0 0.0 0.05 0.05 0.05 86 1003.0
20260507052049 8 0.0 0.0 0.05 0.05 0.05 85 1002.9
20260507051047 8 0.0 0.0 0.03 0.03 0.03 85 1002.9
20260507050023 8 0.0 0.0 0.00 0.00 0.00 85 1002.9
20260507045019 8 0.0 0.0 0.00 0.00 0.00 84 1002.6
20260507044114 8 0.0 0.0 0.00 0.00 0.00 84 1002.6
20260507043111 8 0.0 0.0 0.00 0.00 0.00 84 1002.6
20260507042108 8 0.0 0.0 0.00 0.00 0.00 83 1002.7
20260507041103 8 0.0 0.0 0.00 0.00 0.00 82 1002.6
20260507040100 8 0.0 0.0 0.00 0.00 0.00 82 1002.6
20260507035058 8 0.0 0.0 0.00 0.00 0.00 82 1002.4
20260507034053 9 0.0 0.0 0.00 0.00 0.00 82 1002.5
20260507033048 9 0.0 0.0 0.00 0.00 0.00 82 1002.4
20260507032047 9 0.0 0.0 0.00 0.00 0.00 82 1002.2
20260507031042 9 0.0 0.0 0.00 0.00 0.00 82 1002.0
20260507030039 9 0.0 0.0 0.00 0.00 0.00 82 1001.8
20260507025054 9 0.0 0.0 0.00 0.00 0.00 82 1001.9
20260507024031 9 0.0 0.0 0.00 0.00 0.00 82 1001.8
20260507023027 9 0.0 0.0 0.00 0.00 0.00 81 1001.7
20260507022024 10 0.0 0.0 0.00 0.00 0.00 81 1001.7
20260507021022 10 0.0 0.0 0.00 0.00 0.00 81 1001.6
20260507020016 10 0.0 0.0 0.00 0.00 0.00 80 1001.5
20260507015113 10 0.0 0.0 0.00 0.00 0.00 80 1001.5
20260507014109 10 0.0 0.0 0.00 0.00 0.00 80 1001.4
20260507013106 10 0.0 0.0 0.00 0.00 0.00 80 1001.4
20260507012103 10 0.0 0.0 0.00 0.00 0.00 80 1001.4
20260507011100 10 0.0 0.0 0.00 0.00 0.00 80 1001.4
20260507010056 10 0.0 0.0 0.00 0.00 0.00 80 1001.4
20260507005052 10 0.0 0.0 0.00 0.00 0.00 79 1001.2
20260507004048 10 0.0 0.0 0.00 0.00 0.00 79 1001.3
20260507003046 10 0.0 0.0 0.00 0.00 0.00 79 1001.1
20260507002042 10 0.0 0.0 0.00 0.00 0.00 80 1001.1
20260507001038 10 0.0 0.0 0.00 0.00 0.00 80 1001.3
20260507000034 10 0.0 0.0 0.00 0.00 0.00 80 1001.3
20260506235032 10 0.0 0.0 0.00 0.00 0.00 80 1001.2
20260506234028 11 0.0 0.0 0.00 0.00 0.00 80 1001.1
20260506233025 11 0.0 0.0 0.00 0.00 0.00 80 1001.3
20260506232020 11 0.0 0.0 0.00 0.00 0.00 80 1001.2
20260506231018 11 0.0 0.0 0.00 0.00 0.00 80 1001.1
20260506230118 11 0.0 0.0 0.00 0.00 0.00 80 1001.2
20260506225152 11 0.0 0.0 0.00 0.00 0.00 79 1001.0
20260506224126 11 0.0 0.0 0.00 0.00 0.00 79 1000.9
20260506223104 11 0.0 0.0 0.00 0.00 0.00 79 1000.9
20260506222104 11 0.0 0.0 0.00 0.00 0.00 80 1001.0
20260506221056 11 0.0 0.0 0.00 0.00 0.00 80 1001.1
20260506220053 11 0.0 0.0 0.00 0.00 0.00 80 1001.0
20260506215052 11 0.0 0.0 0.00 0.00 0.00 79 1001.1
20260506214116 11 0.0 0.0 0.00 0.00 0.00 80 1001.1
20260506213050 11 0.0 0.0 0.00 0.00 0.00 80 1001.0
20260506212042 11 0.0 0.0 0.00 0.00 0.00 80 1001.2
20260506210150 11 0.0 0.0 0.00 0.00 0.00 80 1001.1
20260506204056 11 0.0 0.0 0.00 0.00 0.00 80 1001.2
20260506202143 11 0.0 0.0 0.00 0.00 0.00 80 1000.6
20260506201129 11 0.0 0.0 0.00 0.00 0.00 80 1000.5
20260506200117 11 0.0 0.0 0.00 0.00 0.00 80 1000.7
20260506195117 11 0.0 0.0 0.00 0.00 0.00 79 1000.5
20260506194253 11 0.0 0.0 0.00 0.00 0.00 79 1000.5
20260506193128 12 0.0 0.0 0.00 0.00 0.00 78 1000.6
20260506191117 12 0.0 0.0 0.00 0.00 0.00 74 1000.4
20260506184047 12 0.0 0.0 0.00 0.00 0.00 72 1000.2
20260506183035 13 0.0 0.0 0.00 0.00 0.00 71 1000.0
20260506182113 13 0.0 0.0 0.00 0.00 0.00 71 999.9
20260506181027 13 0.0 0.0 0.00 0.00 0.00 70 999.8
20260506180100 14 0.0 0.0 0.00 0.00 0.00 70 999.9
20260506175158 15 0.0 0.0 0.00 0.00 0.00 69 999.8
20260506174116 15 0.0 0.0 0.00 0.00 0.00 68 1000.0
20260506173134 16 0.0 0.0 0.00 0.00 0.00 65 999.7
20260506172108 16 0.0 0.0 0.00 0.00 0.00 65 999.7
20260506171110 17 0.0 0.0 0.00 0.00 0.00 62 999.6
20260506170204 18 0.0 0.0 0.00 0.00 0.00 60 999.5
20260506165143 18 0.0 0.0 0.00 0.00 0.00 60 999.2
20260506163053 18 0.0 0.0 0.00 0.00 0.00 61 999.2
20260506162049 18 0.0 0.0 0.00 0.00 0.00 60 999.1
20260506161044 20 0.0 0.0 0.00 0.00 0.00 57 999.0
20260506160040 20 0.0 0.0 0.00 0.00 0.00 56 999.0
20260506155057 21 0.0 0.0 0.00 0.00 0.00 53 998.9
20260506154043 21 0.0 0.0 0.00 0.00 0.00 54 998.8
20260506153031 22 0.0 0.0 0.00 0.00 0.00 50 998.7
20260506152034 23 0.0 0.0 0.00 0.00 0.00 41 998.4
20260506151031 23 0.0 0.0 0.00 0.00 0.00 41 998.4
20260506150020 22 0.0 0.0 0.00 0.00 0.00 43 998.3
20260506145114 22 0.0 0.0 0.00 0.00 0.00 41 998.2
20260506144120 23 0.0 0.0 0.00 0.00 0.00 40 998.2
20260506143107 25 0.0 0.0 0.00 0.00 0.00 40 998.1
20260506142122 22 0.0 0.0 0.00 0.00 0.00 41 998.2
20260506141102 23 0.0 0.0 0.00 0.00 0.00 41 998.1
20260506140109 23 0.0 0.0 0.00 0.00 0.00 41 998.1
20260506135052 23 0.0 0.0 0.00 0.00 0.00 40 998.1
20260506134048 23 0.0 0.0 0.00 0.00 0.00 41 998.1
20260506133052 23 0.0 0.0 0.00 0.00 0.00 40 998.0
20260506132109 23 0.0 0.0 0.00 0.00 0.00 40 997.9
20260506131042 22 0.0 0.0 0.00 0.00 0.00 43 998.0
20260506130033 21 0.0 0.0 0.00 0.00 0.00 47 998.0
20260506125030 21 0.0 0.0 0.00 0.00 0.00 50 998.0
20260506124026 21 0.0 0.0 0.00 0.00 0.00 50 998.0
20260506123048 22 0.0 0.0 0.00 0.00 0.00 45 998.0
20260506122024 22 0.0 0.0 0.00 0.00 0.00 46 997.7
20260506121119 22 0.0 0.0 0.00 0.00 0.00 50 997.7
20260506120114 21 0.0 0.0 0.00 0.00 0.00 50 997.6
20260506115112 22 0.0 0.0 0.00 0.00 0.00 51 997.6
20260506114104 21 0.0 0.0 0.00 0.00 0.00 52 997.6